Home   Weather   Ajax   Past weeks

Flag for Canada Past Weather in Ajax, Ontario, Canada — Yesterday and Last 2 Weeks

Now
68 °F

Partly sunny.


Feels Like: 68 °F
Forecast: 53 / 69 °F
Wind: 17 mph from Southwest

Location: Toronto Buttonville

Current Time: Sep 27, 2016 at 3:10:53 PM

Latest Report: Sep 27, 2016 at 2:00 PM


Visibility: 15 mi

Pressure: 29.75 "Hg

Humidity: 30%

Dew Point: 36 °F

Location of AjaxLocation

Past Weather in Ajax — Graph

°F

Ajax Temperature Yesterday

Maximum temperature yesterday: 63 °F (at 11:00 AM)
Minimum temperature yesterday: 52 °F (at 12:00 AM)
Average temperature yesterday: 58 °F

High & Low Weather Summary for the Past Weeks

 TemperatureHumidityPressure
High82 °F (Sep 13, 3:00 PM)100% (Sep 18, 5:45 AM)30.38 "Hg (Sep 18, 5:45 AM)
Low43 °F (Sep 25, 6:00 AM)22% (Sep 20, 6:00 PM)29.75 "Hg (Sep 27, 2:00 PM)
Average64 °F69%30.09 "Hg
* Reported Sep 12 2:00 PM — Sep 27 2:00 PM, Ajax, Weather by CustomWeather, © 2016

Note: Actual official high and low records may vary slightly from our data, if they occured in-between our weather recording intervals... More about our weather records

Advertising

Ajax Weather History for the Previous 24 Hours

Scroll right to see more
 ConditionsComfort  
Time TempWeatherWind HumidityBarometerVisibility
2:00 PM
Tue, Sep 27
68 °FPartly sunny.17 mph30%29.75 "Hg15 mi
1:00 PM68 °FPartly sunny.13 mph35%29.75 "Hg15 mi
12:00 PM68 °FScattered clouds.10 mph38%29.76 "Hg15 mi
11:00 AM64 °FScattered clouds.12 mph46%29.78 "Hg15 mi
10:00 AM59 °FPassing clouds.7 mph59%29.79 "Hg15 mi
9:00 AM55 °FPassing clouds.3 mph67%29.80 "Hg15 mi
8:00 AM48 °FPassing clouds.3 mph87%29.81 "Hg15 mi
7:00 AM45 °FPassing clouds.No wind93%29.81 "Hg15 mi
6:00 AM48 °FClear.2 mph82%29.81 "Hg15 mi
5:00 AM50 °FClear.3 mph76%29.82 "Hg15 mi
4:00 AM52 °FClear.2 mph77%29.83 "Hg15 mi
3:00 AM52 °FClear.5 mph77%29.83 "Hg15 mi
2:00 AM54 °FClear.3 mph77%29.83 "Hg15 mi
1:00 AM54 °FPassing clouds.5 mph82%29.84 "Hg15 mi
12:00 AM55 °FPassing clouds.6 mph82%29.85 "Hg15 mi
11:00 PM
Mon, Sep 26
55 °FPassing clouds.5 mph88%29.86 "Hg15 mi
10:00 PM55 °FPassing clouds.3 mph94%29.87 "Hg15 mi
9:00 PM55 °FPassing clouds.5 mph88%29.87 "Hg15 mi
8:00 PM57 °FPassing clouds.3 mph82%29.85 "Hg15 mi
7:00 PM59 °FMostly cloudy.5 mph82%29.85 "Hg15 mi
6:00 PM57 °FLight rain. Partly sunny.8 mph82%29.84 "Hg15 mi
5:48 PM59 °FSprinkles. Overcast.12 mph77%29.84 "Hg15 mi
5:00 PM63 °FMostly cloudy.7 mph88%29.82 "Hg15 mi
4:00 PM63 °FLight rain. More clouds than sun.7 mph94%29.84 "Hg10 mi
3:57 PM63 °FLight rain. Cloudy.7 mph94%29.84 "Hg7 mi
3:00 PM61 °FLow clouds.7 mph94%29.82 "Hg8 mi
Weather by CustomWeather, © 2016

See weather overviewHow to use our weather pages